AC5AN Weather Reports


Display with metric or nautical units.
time (UTC)temp
F
wind
direction
speed
MPH
gust
MPH
rain 1hr
in
rain 24hr
in
rain mn
in
humidity
%
barometer
mb
20260509070320 61 294 1.0 4.0 0.00 0.52 0.00 65 1010.5
20260509065821 61 302 1.0 3.0 0.00 0.52 0.00 65 1010.4
20260509065330 61 327 1.0 4.0 0.00 0.52 0.00 65 1010.5
20260509064830 61 324 2.0 4.0 0.00 0.52 0.00 65 1010.6
20260509064339 62 292 2.0 4.0 0.00 0.52 0.00 65 1010.6
20260509063820 62 346 1.0 4.0 0.00 0.52 0.00 65 1010.7
20260509063317 62 307 1.0 4.0 0.00 0.52 0.00 65 1010.8
20260509062818 62 328 2.0 4.0 0.00 0.52 0.00 65 1010.7
20260509062326 62 292 2.0 4.0 0.00 0.52 0.00 65 1010.9
20260509061827 62 342 1.0 5.0 0.00 0.52 0.00 65 1010.8
20260509061335 63 290 2.0 5.0 0.00 0.52 0.00 64 1010.8
20260509060816 63 321 1.0 4.0 0.00 0.52 0.00 64 1010.9
20260509060317 63 273 1.0 5.0 0.00 0.52 0.00 65 1010.9
20260509055825 64 360 3.0 5.0 0.00 0.52 0.00 65 1010.7
20260509055326 64 241 1.0 4.0 0.00 0.52 0.00 65 1010.6
20260509054855 64 236 0.0 0.0 0.00 0.52 0.00 65 1010.4
20260509054314 64 232 0.0 0.0 0.00 0.52 0.00 65 1010.3
20260509053821 64 207 0.0 0.0 0.00 0.52 0.00 65 1010.3
20260509053329 64 201 0.0 0.0 0.00 0.52 0.00 65 1010.5
20260509052829 64 194 0.0 3.0 0.00 0.52 0.00 65 1010.4
20260509052337 64 194 1.0 4.0 0.00 0.52 0.00 65 1010.3
20260509051815 64 192 2.0 6.0 0.00 0.52 0.00 65 1010.5
20260509051316 64 163 3.0 6.0 0.00 0.52 0.00 65 1010.3
20260509050816 64 140 2.0 4.0 0.00 0.52 0.00 65 1010.3
20260509050343 64 180 2.0 5.0 0.00 0.52 0.00 65 1010.3
20260509045830 64 155 2.0 5.0 0.00 0.52 0.52 65 1010.2
20260509045330 64 153 1.0 5.0 0.00 0.52 0.52 65 1010.1
20260509044859 64 155 2.0 6.0 0.00 0.52 0.52 65 1010.0
20260509044318 64 153 2.0 5.0 0.00 0.52 0.52 65 1010.3
20260509043819 64 153 0.0 0.0 0.00 0.52 0.52 65 1010.3
20260509043327 64 153 0.0 0.0 0.00 0.52 0.52 65 1009.9
20260509042828 64 153 0.0 0.0 0.01 0.52 0.52 65 1009.8
20260509042316 64 153 0.0 0.0 0.01 0.52 0.52 65 1009.7
20260509041835 64 153 0.0 0.0 0.01 0.52 0.52 65 1009.7
20260509041343 64 153 0.0 0.0 0.01 0.52 0.52 65 1009.6
20260509040831 65 153 0.0 0.0 0.01 0.52 0.52 65 1009.8
20260509040317 65 153 0.0 0.0 0.01 0.52 0.52 65 1010.0
20260509035819 65 153 0.0 3.0 0.01 0.52 0.52 65 1009.9
20260509035327 65 153 1.0 3.0 0.01 0.52 0.52 65 1010.0
20260509034843 65 157 1.0 5.0 0.01 0.52 0.52 65 1009.9
20260509034349 65 157 2.0 6.0 0.01 0.52 0.52 65 1009.9
20260509033836 65 173 2.0 6.0 0.01 0.52 0.52 65 1010.0
20260509033317 65 143 3.0 6.0 0.01 0.52 0.52 65 1009.9
20260509032818 66 157 3.0 6.0 0.00 0.51 0.51 65 1010.0
20260509032317 66 123 2.0 3.0 0.00 0.51 0.51 65 1010.1
20260509031845 66 109 1.0 4.0 0.00 0.51 0.51 65 1010.0
20260509031331 66 92 1.0 5.0 0.00 0.51 0.51 65 1010.0
20260509030829 66 82 3.0 5.0 0.00 0.51 0.51 65 1010.0
20260509030313 66 96 0.0 6.0 0.00 0.51 0.51 65 1010.3
20260509025814 66 96 2.0 6.0 0.00 0.51 0.51 65 1010.2
20260509025322 67 103 2.0 6.0 0.00 0.51 0.51 65 1010.0
20260509024820 67 207 2.0 4.0 0.00 0.51 0.51 65 1010.1
20260509024323 67 257 0.0 0.0 0.02 0.51 0.51 65 1010.1
20260509023823 67 257 0.0 2.0 0.05 0.51 0.51 65 1009.9
20260509023330 67 257 1.0 3.0 0.09 0.51 0.51 65 1009.6
20260509022829 67 258 0.0 7.0 0.12 0.51 0.51 65 1009.4
20260509022337 67 259 4.0 7.0 0.16 0.51 0.51 66 1009.8
20260509021816 67 234 3.0 5.0 0.22 0.51 0.51 65 1009.3
20260509021322 67 88 2.0 6.0 0.39 0.51 0.51 66 1008.8
20260509020823 67 82 3.0 5.0 0.51 0.51 0.51 66 1008.9
20260509020352 67 128 1.0 7.0 0.51 0.51 0.51 64 1008.8
20260509015831 67 105 3.0 9.0 0.51 0.51 0.51 64 1007.9
20260509015339 67 155 5.0 12.0 0.51 0.51 0.51 64 1007.5
20260509014817 68 100 6.0 13.0 0.51 0.51 0.51 65 1007.8
20260509014332 67 143 6.0 16.0 0.49 0.49 0.49 64 1008.2
20260509013817 67 115 6.0 17.0 0.45 0.45 0.45 65 1007.7
20260509013315 67 360 11.0 21.0 0.42 0.42 0.42 66 1008.5
20260509012823 66 30 11.0 24.0 0.39 0.39 0.39 68 1008.8
20260509012323 66 360 12.0 22.0 0.34 0.34 0.34 69 1008.2
20260509011829 67 285 10.0 25.0 0.28 0.28 0.28 69 1008.3
20260509011330 69 46 13.0 28.0 0.10 0.10 0.10 66 1008.5
20260509010817 73 27 16.0 28.0 0.00 0.00 0.00 63 1008.6
20260509010317 76 351 13.0 22.0 0.00 0.00 0.00 60 1008.0
20260509005817 76 174 4.0 11.0 0.00 0.00 0.00 62 1006.6
20260509005324 77 181 6.0 11.0 0.00 0.00 0.00 62 1006.3
20260509004823 77 148 7.0 10.0 0.00 0.00 0.00 61 1006.4
20260509004330 77 184 6.0 12.0 0.00 0.00 0.00 61 1006.5
20260509003830 77 169 9.0 12.0 0.00 0.00 0.00 61 1006.5
20260509003329 78 188 7.0 10.0 0.00 0.00 0.00 61 1006.6
20260509002815 78 151 5.0 10.0 0.00 0.00 0.00 61 1006.5
20260509002315 78 163 7.0 11.0 0.00 0.00 0.00 60 1006.4
20260509001815 78 150 7.0 11.0 0.00 0.00 0.00 60 1005.9
20260509001322 78 202 7.0 13.0 0.00 0.00 0.00 60 1005.9
20260509000830 78 196 9.0 13.0 0.00 0.00 0.00 60 1005.8
20260509000329 77 167 7.0 12.0 0.00 0.00 0.00 59 1005.8
20260508235855 77 360 7.0 10.0 0.00 0.00 0.00 59 1005.9
20260508235314 78 193 4.0 9.0 0.00 0.00 0.00 58 1006.2
20260508234814 78 201 5.0 9.0 0.00 0.00 0.00 58 1006.5
20260508234340 78 169 5.0 9.0 0.00 0.00 0.00 58 1006.3
20260508233827 78 189 6.0 8.0 0.00 0.00 0.00 58 1006.3
20260508233327 78 192 4.0 9.0 0.00 0.00 0.00 58 1006.3
20260508232855 78 194 4.0 8.0 0.00 0.00 0.00 57 1006.2
20260508232335 79 183 6.0 10.0 0.00 0.00 0.00 57 1006.1
20260508231822 79 180 6.0 10.0 0.00 0.00 0.00 56 1006.2
20260508231322 79 167 7.0 12.0 0.00 0.00 0.00 56 1006.4
20260508230849 80 207 7.0 12.0 0.00 0.00 0.00 55 1006.4
20260508230330 80 192 8.0 13.0 0.00 0.00 0.00 54 1006.3
20260508225816 80 182 10.0 13.0 0.00 0.00 0.00 54 1006.3
20260508225315 81 192 8.0 15.0 0.00 0.00 0.00 53 1006.4
20260508224844 82 186 9.0 15.0 0.00 0.00 0.00 52 1006.4
20260508224351 82 201 8.0 15.0 0.00 0.00 0.00 52 1006.4
20260508223812 82 192 9.0 12.0 0.00 0.00 0.00 52 1006.5
20260508223312 82 157 6.0 13.0 0.00 0.00 0.00 52 1006.5
20260508222818 82 205 9.0 13.0 0.00 0.00 0.00 53 1006.7
20260508222316 82 137 6.0 11.0 0.00 0.00 0.00 52 1006.9
20260508221823 83 194 8.0 12.0 0.00 0.00 0.00 51 1007.0
20260508221323 83 179 8.0 12.0 0.00 0.00 0.00 50 1007.1
20260508220832 84 167 7.0 10.0 0.00 0.00 0.00 49 1007.3
20260508220312 83 207 4.0 12.0 0.00 0.00 0.00 52 1007.3
20260508215813 83 236 9.0 12.0 0.00 0.00 0.00 50 1007.3
20260508215314 83 134 7.0 10.0 0.00 0.00 0.00 50 1007.3
20260508214822 83 234 6.0 15.0 0.00 0.00 0.00 50 1007.3
20260508214322 84 200 7.0 15.0 0.00 0.00 0.00 49 1007.4
20260508213829 83 208 7.0 12.0 0.00 0.00 0.00 49 1007.4
20260508213330 84 171 6.0 12.0 0.00 0.00 0.00 49 1007.5
20260508212835 84 192 4.0 12.0 0.00 0.00 0.00 49 1007.5
20260508212336 83 253 7.0 12.0 0.00 0.00 0.00 49 1007.6
20260508211822 83 220 9.0 13.0 0.00 0.00 0.00 49 1007.7
20260508211322 83 190 7.0 13.0 0.00 0.00 0.00 49 1007.7
20260508210846 83 203 8.0 15.0 0.00 0.00 0.00 49 1007.8
20260508210324 83 153 9.0 15.0 0.00 0.00 0.00 49 1007.9
20260508205816 83 220 7.0 11.0 0.00 0.00 0.00 49 1007.9
20260508205316 83 198 8.0 15.0 0.00 0.00 0.00 50 1008.0
20260508204817 83 236 10.0 17.0 0.00 0.00 0.00 49 1008.1
20260508204325 83 167 9.0 17.0 0.00 0.00 0.00 50 1008.1
20260508203825 83 150 7.0 12.0 0.00 0.00 0.00 49 1008.2
20260508203333 83 232 7.0 12.0 0.00 0.00 0.00 49 1008.3
20260508202818 83 246 6.0 12.0 0.00 0.00 0.00 48 1008.3
20260508202319 83 241 6.0 15.0 0.00 0.00 0.00 50 1008.4
20260508201842 83 155 6.0 18.0 0.00 0.00 0.00 48 1008.4
20260508201348 83 207 8.0 18.0 0.00 0.00 0.00 49 1008.4